Tümü
Billabong Stn Airport YBST Hava Durumu
There is no TAF data available at YBST or any nearby airports.
There is no METAR data available at YBST. Showing METAR data for YWWL (23 mi GB).
Yakın zamandaki WWY METAR geçmişi (YBST verisi yok)
| Date | Time (AEST) | Flight Rules | Wind Dir. | Speed | Type | Height AGL (ft) | Visibility | Temp (°C) | Temp (°F) | Dew Point (°C) | Dew Point (°F) | Rel. Humid. | Pressure | Density Altitude | Remarks |
|---|---|---|---|---|---|---|---|---|---|---|---|---|---|---|---|
| 06-May | 12:00 | n/a | 210° | 7 kt | Missing | 16° | 60° | 7° | 44° | 55% | 1021 mb | 749 ft | |||
| 06-May | 11:00 | n/a | 210° | 6 kt | Missing | 16° | 60° | 9° | 48° | 63% | 1022 mb | 719 ft | |||
| 06-May | 10:00 | n/a | 170° | 5 kt | Missing | 14° | 57° | 9° | 48° | 72% | 1022 mb | 479 ft | |||
| 06-May | 09:00 | n/a | 210° | 4 kt | Missing | 12° | 53° | 10° | 50° | 88% | 1022 mb | 239 ft | |||
| 06-May | 08:00 | n/a | 170° | 4 kt | Missing | 8° | 46° | 8° | 46° | 100% | 1022 mb | -241 ft | |||
| 06-May | 07:00 | n/a | 230° | 3 kt | Missing | 5° | 41° | 4° | 39° | 93% | 1022 mb | -601 ft | |||
| 06-May | 06:00 | n/a | 240° | 5 kt | Missing | 6° | 42° | 5° | 41° | 93% | 1022 mb | -481 ft | |||
| 06-May | 05:00 | n/a | Calm | Missing | 5° | 41° | 5° | 41° | 100% | 1022 mb | -601 ft | ||||
| 06-May | 04:00 | n/a | 250° | 4 kt | Missing | 5° | 41° | 5° | 41° | 100% | 1021 mb | -571 ft | |||
| 06-May | 03:00 | n/a | 240° | 4 kt | Missing | 5° | 41° | 5° | 41° | 100% | 1022 mb | -601 ft | |||
| 06-May | 02:00 | n/a | Calm | Missing | 6° | 42° | 5° | 41° | 93% | 1022 mb | -481 ft | ||||
| 06-May | 01:00 | n/a | Calm | Missing | 7° | 44° | 7° | 44° | 100% | 1022 mb | -361 ft | ||||
| 06-May | 00:00 | n/a | 230° | 5 kt | Missing | 7° | 44° | 6° | 42° | 93% | 1022 mb | -361 ft | |||
| 05-May | 23:00 | n/a | 260° | 4 kt | Missing | 7° | 44° | 7° | 44° | 100% | 1023 mb | -390 ft | |||
| 05-May | 22:00 | n/a | Calm | Missing | 8° | 46° | 7° | 44° | 93% | 1023 mb | -270 ft | ||||
| 05-May | 21:00 | n/a | 250° | 1 kt | Missing | 11° | 51° | 9° | 48° | 87% | 1023 mb | 90 ft | |||
| 05-May | 20:00 | n/a | 190° | 5 kt | Missing | 12° | 53° | 9° | 48° | 82% | 1023 mb | 210 ft | |||
| 05-May | 19:00 | n/a | 240° | 4 kt | Missing | 11° | 51° | 8° | 46° | 82% | 1022 mb | 119 ft | |||
| 05-May | 18:00 | n/a | 250° | 3 kt | Missing | 13° | 55° | 8° | 46° | 72% | 1022 mb | 359 ft | |||
| 05-May | 17:00 | n/a | 240° | 8 kt | Missing | 16° | 60° | 7° | 44° | 55% | 1021 mb | 749 ft | |||
| 05-May | 16:00 | n/a | 250° | 7 kt | Missing | 17° | 62° | 7° | 44° | 52% | 1021 mb | 869 ft | |||
| 05-May | 15:00 | n/a | 240° | 7 kt | Missing | 19° | 66° | 6° | 42° | 43% | 1020 mb | 1.138 ft | |||
| 05-May | 14:00 | n/a | 230° | 4 kt | Missing | 18° | 64° | 7° | 44° | 49% | 1020 mb | 1.018 ft | |||
| 05-May | 13:00 | n/a | 220° | 7 kt | Missing | 18° | 64° | 7° | 44° | 49% | 1021 mb | 989 ft |
Giriş
| Tarayıcınız desteklenmiyor. tarayıcınızı yükseltin |
